Weather History for TJSJ - February, 2012

Change the Weather History Date:

Monday, February 20, 2012

  Actual Average Record
Temperature  
Mean Temperature 76 °F 78 °F  
Max Temperature 83 °F 84 °F 91 °F (1980)
Min Temperature 69 °F 72 °F 65 °F (1959)
Degree Days  
Heating Degree Days 0 0  
Month to date heating degree days 0 0  
Since 1 July heating degree days 0 0  
Cooling Degree Days 11 13  
Month to date cooling degree days 249 260  
Year to date cooling degree days 637 651  
Growing Degree Days 26 (Base 50)    
Moisture  
Dew Point 65 °F    
Average Humidity 65    
Maximum Humidity 84    
Minimum Humidity 46    
Precipitation  
Precipitation 0.00 in 0.08 in 1.98 in (1915)
Month to date precipitation 1.70 1.78  
Year to date precipitation 5.43 5.54  
Snow  
Snow 0.00 in 0.00 in - ()
Month to date snowfall 0.0 0.0  
Since 1 July snowfall 0.0 0.0  
Snow Depth 0.00 in    
Sea Level Pressure  
Sea Level Pressure 30.02 in    
Wind  
Wind Speed 6 mph (East)    
Max Wind Speed 16 mph    
Max Gust Speed 21 mph    
Visibility 10 miles    
Events      
T = Trace of Precipitation, MM = Missing Value Source: NWS Daily Summary

Daily Weather History Graph

Daily Weather History Graph

Search for Another Location

Airport or City:

Trip Planner

Search our weather history database for the weather conditions in past years. The results will help you decide how hot, cold, wet, or windy it might be!

Date:

Astronomy

Feb. 20, 2012 Rise Set
Actual Time 6:49 AM AST 6:26 PM AST
Civil Twilight 6:27 AM AST 6:48 PM AST
Nautical Twilight 6:01 AM AST 7:14 PM AST
Astronomical Twilight 5:35 AM AST 7:39 PM AST
Moon 5:38 AM AST (2/20) 5:28 PM AST (2/20)
Length of Visible Light 12h 21m
Length of Day
11h 37m
Waning Crescent, 2% of the Moon is Illuminated
Feb 20
Waning Crescent
Feb 21
New
Feb 29
First Quarter
Mar 8
Full
Mar 14
Last Quarter

Hourly Weather History & Observations

Time (AST) Temp. Heat Index Dew Point Humidity Pressure Visibility Wind Dir Wind Speed Gust Speed Precip Events Conditions
12:56 AM 72.0 °F - 66.9 °F 84% 30.02 in 10.0 mi Calm Calm - N/A   Clear
1:56 AM 71.1 °F - 66.9 °F 87% 30.00 in 10.0 mi Calm Calm - N/A   Clear
2:56 AM 71.1 °F - 66.0 °F 84% 29.98 in 10.0 mi Calm Calm - N/A   Partly Cloudy
3:56 AM 71.1 °F - 66.0 °F 84% 29.97 in 10.0 mi Calm Calm - N/A   Partly Cloudy
4:56 AM 70.0 °F - 64.9 °F 84% 29.98 in 10.0 mi Calm Calm - N/A   Clear
5:56 AM 70.0 °F - 64.9 °F 84% 29.98 in 10.0 mi Calm Calm - N/A   Partly Cloudy
6:56 AM 69.1 °F - 64.9 °F 87% 30.01 in 10.0 mi Calm Calm - N/A   Partly Cloudy
7:56 AM 72.0 °F - 64.9 °F 78% 30.02 in 10.0 mi Calm Calm - N/A   Partly Cloudy
8:56 AM 77.0 °F - 66.0 °F 69% 30.06 in 10.0 mi Calm Calm - N/A   Partly Cloudy
9:56 AM 80.1 °F 81.7 °F 64.0 °F 58% 30.07 in 10.0 mi East 10.4 mph - N/A   Scattered Clouds
10:56 AM 82.0 °F 82.1 °F 59.0 °F 45% 30.07 in 10.0 mi East 5.8 mph - N/A   Scattered Clouds
11:56 AM 82.0 °F 83.4 °F 64.0 °F 54% 30.06 in 10.0 mi NE 16.1 mph - N/A   Scattered Clouds
12:56 PM 82.0 °F 83.0 °F 62.1 °F 51% 30.05 in 10.0 mi NE 12.7 mph - N/A   Scattered Clouds
1:56 PM 82.0 °F 83.0 °F 62.1 °F 51% 30.02 in 10.0 mi NE 10.4 mph - N/A   Scattered Clouds
2:56 PM 82.0 °F 83.1 °F 63.0 °F 52% 30.00 in 10.0 mi ENE 12.7 mph - N/A   Scattered Clouds
3:56 PM 81.0 °F 82.2 °F 63.0 °F 54% 29.99 in 10.0 mi NE 12.7 mph - N/A   Scattered Clouds
4:56 PM 80.1 °F 81.9 °F 64.9 °F 60% 29.99 in 10.0 mi NE 11.5 mph - N/A   Scattered Clouds
5:56 PM 79.0 °F - 66.0 °F 64% 30.00 in 10.0 mi ENE 12.7 mph - N/A   Scattered Clouds
6:56 PM 75.9 °F - 66.9 °F 74% 30.01 in 10.0 mi East 9.2 mph - N/A   Scattered Clouds
7:56 PM 75.9 °F - 64.9 °F 69% 30.04 in 10.0 mi East 6.9 mph - N/A   Partly Cloudy
8:56 PM 75.9 °F - 64.9 °F 69% 30.05 in 10.0 mi ESE 4.6 mph - N/A   Partly Cloudy
9:56 PM 75.9 °F - 66.0 °F 71% 30.06 in 10.0 mi ESE 5.8 mph - N/A   Partly Cloudy
10:56 PM 75.0 °F - 66.0 °F 73% 30.07 in 10.0 mi SE 5.8 mph - N/A   Partly Cloudy
11:56 PM 73.9 °F - 66.0 °F 76% 30.07 in 10.0 mi SE 3.5 mph - N/A   Partly Cloudy